Location: Little Chesterford
(52.0500°N, 0.1833°E)
Time: 03:54:35
(UTC+00:00)

ADEOS Rocket - Pass Details

Date: 26 September 2023
Orbit: 858 x 1306 km, 98.7° (Epoch: 29 November)

Event Time Altitude Azimuth Distance (km) Brightness Sun altitude
Exits shadow 20:04:55 16° 165° (SSE) 2,851 5.0 -21.0°
Maximum altitude 20:11:23 85° 254° (WSW) 1,287 3.5 -21.9°
Drops below altitude 10° 20:18:49 10° 344° (NNW) 3,169 6.3 -22.9°
Sets 20:21:22 0° 345° (NNW) 4,085 6.9 -23.3°
